Location: Mohawk View
(42.7837°N, 73.7885°W)
Time: 13:01:29
(UTC+00:00)

Okean 2 - Pass Details

Date: 17 June 2021
Orbit: 560 x 575 km, 82.5° (Epoch: 26 July)

Event Time Altitude Azimuth Distance (km) Brightness Sun altitude
Rises 01:26:46 0° 187° (S) 2,747 6.5 -8.2°
Reaches altitude 10° 01:28:56 10° 188° (S) 1,853 5.7 -8.5°
Maximum altitude 01:33:00 88° 271° (W) 569 3.4 -9.0°
Drops below altitude 10° 01:37:07 10° 8° (N) 1,861 6.6 -9.5°
Sets 01:39:18 0° 8° (N) 2,761 7.5 -9.8°
